[[{"header":{"parameterUnit":"m.s-1","parameterCategory":1,"la1":30.2992,"la2":30.254,"lo1":-89.0895,"lo2":-89.0443,"dy":0.0025,"dx":0.0025,"nx":19,"ny":19,"refTime":"2026-03-23T09:00:00:Z","depth":0,"parameterNumber":2,"parameterNumberName":"U-component_of_WINDS"},"data":[0,0,0,-5.0863,-5.0869,-5.115,-5.1151,-5.1505,-5.1508,0,0,0,0,0,0,0,0,0,0,0,-5.0776,-5.0778,-5.0862,-5.0869,-5.115,-5.1151,-5.1504,-5.1508,0,0,0,0,0,0,0,0,0,0,0,-5.0775,-5.0777,-5.078,-5.087,-5.1149,-5.1151,-5.1503,-5.1294,0,0,0,0,0,0,0,0,0,0,-5.1022,-5.0937,-5.0777,-5.078,-5.0872,-5.1149,-5.1151,-5.1284,-5.1307,-5.1375,0,-5.1433,0,-5.1476,-5.1531,-5.1532,0,0,0,-5.0873,-5.0918,-5.0997,-5.0781,-5.0875,-5.1149,-5.1024,-5.1297,-5.1323,-5.1405,-5.1438,-5.1452,-5.1482,-5.1533,-5.1535,-5.1913,-5.1914,0,0,-5.0857,-5.0824,-5.0979,-5.1014,-5.0969,-5.1015,-5.1033,-5.1312,-5.1347,-5.144,-5.146,-5.1488,-5.1535,-5.1538,-5.1911,-5.1913,0,0,0,-5.081,-5.0813,-5.0886,-5.0999,-5.105,-5.1023,-5.1044,-5.1334,-5.1361,-5.1464,-5.1492,-5.1537,-5.1542,-5.191,-5.1912,-5.1956,0,0,0,-5.0801,-5.0786,-5.0879,-5.0861,-5.1045,-5.1196,-5.1059,-5.1341,-5.1374,-5.149,-5.1538,-5.1545,-5.1908,-5.1911,-5.1951,-5.1981,0,0,0,-5.0759,-5.0781,-5.082,-5.0859,-5.0978,-5.1192,-5.1234,-5.1349,-5.1391,-5.1532,-5.1546,-5.1907,-5.191,-5.1947,-5.1974,-5.2069,0,0,0,-5.0704,-5.0857,-5.082,-5.1002,-5.0976,-5.1217,-5.1233,-5.1415,-5.1542,-5.1539,-5.1908,-5.1912,-5.1945,-5.197,-5.2064,-5.2139,-5.2168,0,0,-5.0878,-5.0877,-5.0987,-5.0962,-5.1201,-5.1177,-5.1424,-5.1573,-5.1618,-5.1812,-5.1822,-5.1953,-5.1974,-5.2068,-5.235,-5.2373,0,0,0,-5.1031,-5.1108,-5.1179,-5.1298,-5.1414,-5.1516,-5.1631,-5.1686,-5.1852,-5.1711,-5.2015,-5.2029,-5.2085,-5.2123,-5.2142,-5.2192,-5.1929,-5.1928,-5.1928,-5.1227,-5.1276,-5.146,-5.1542,-5.1657,-5.1774,-5.1871,-5.1966,-5.1983,-5.2054,-5.211,-5.2276,-5.2319,-5.2333,-5.2384,-5.2158,-5.2158,-5.2158,-5.2158,-5.1484,-5.16,-5.1619,-5.1803,-5.1855,-5.2011,-5.213,-5.2137,-5.229,-5.2238,-5.229,-5.2224,-5.2357,-5.2404,-5.2162,-5.2161,-5.2161,-5.216,-5.216,-5.1615,-5.1679,-5.1743,-5.1919,-5.2049,-5.2129,-5.2275,-5.2318,-5.2359,-5.2411,-5.2474,-5.2473,-5.2475,-5.2439,-5.2439,-5.244,-5.244,-5.2441,-5.2441,-5.1723,-5.1795,-5.1911,-5.2048,-5.2129,-5.2241,-5.2361,-5.2443,-5.2544,-5.2564,-5.2565,-5.2572,-5.2362,-5.2306,-5.245,-5.2449,-5.2448,-5.2447,-5.2446,-5.1958,-5.1912,-5.2091,-5.2172,-5.2336,-5.2462,-5.2516,-5.2679,-5.2753,-5.2823,-5.2822,-5.2661,-5.2662,-5.2647,-5.26,-5.2812,-5.2812,-5.2812,-5.2812,-5.2065,-5.2071,-5.2263,-5.239,-5.252,-5.2586,-5.2788,-5.2883,-5.2975,-5.3024,-5.3001,-5.2944,-5.2927,-5.2939,-5.2917,-5.2874,-5.3151,-5.3152,-5.3152,-5.2211,-5.2232,-5.2393,-5.248,-5.2612,-5.2725,-5.2915,-5.306,-5.3156,-5.3167,-5.3062,-5.3048,-5.2958,-5.2927,-5.293,-5.2896,-5.2818,0,0]},{"header":{"parameterUnit":"m.s-1","parameterCategory":1,"la1":30.2992,"la2":30.254,"lo1":-89.0895,"lo2":-89.0443,"dy":0.0025,"dx":0.0025,"nx":19,"ny":19,"refTime":"2026-03-23T09:00:00:Z","depth":0,"parameterNumber":3,"parameterNumberName":"V-component_of_WINDS"},"data":[0,0,0,2.1704,2.1703,2.1685,2.1685,2.1662,2.1662,0,0,0,0,0,0,0,0,0,0,0,2.1711,2.171,2.1704,2.1703,2.1685,2.1685,2.1662,2.1662,0,0,0,0,0,0,0,0,0,0,0,2.1711,2.1711,2.171,2.1703,2.1685,2.1685,2.1662,2.1675,0,0,0,0,0,0,0,0,0,0,2.1693,2.1701,2.1711,2.171,2.1703,2.1685,2.1685,2.1676,2.1675,2.1671,0,2.167,0,2.1666,2.1661,2.1661,0,0,0,2.1701,2.1703,2.1696,2.171,2.1703,2.1685,2.1693,2.1675,2.1674,2.1669,2.1669,2.1668,2.1665,2.1661,2.166,2.1649,2.1649,0,0,2.1703,2.1708,2.1698,2.1695,2.17,2.1693,2.1692,2.1674,2.1674,2.1669,2.1668,2.1665,2.166,2.166,2.1649,2.1649,0,0,0,2.1706,2.1709,2.1703,2.1696,2.1693,2.1693,2.1692,2.1675,2.1673,2.1668,2.1665,2.166,2.166,2.1649,2.1649,2.1655,0,0,0,2.1707,2.1711,2.1703,2.1706,2.1694,2.1684,2.1693,2.1674,2.1672,2.1665,2.166,2.166,2.1649,2.1649,2.1655,2.1658,0,0,0,2.1711,2.1711,2.171,2.1707,2.1699,2.1684,2.1681,2.1673,2.167,2.1661,2.166,2.1649,2.1649,2.1655,2.1657,2.1656,0,0,0,2.1717,2.1715,2.171,2.1707,2.1699,2.1689,2.1681,2.1673,2.1665,2.166,2.1649,2.1649,2.1655,2.1657,2.1656,2.1656,2.1657,0,0,2.1718,2.1716,2.1713,2.1708,2.17,2.1691,2.1684,2.1672,2.1665,2.1654,2.1654,2.1655,2.1657,2.1656,2.1659,2.166,0,0,0,2.1715,2.1714,2.1711,2.1705,2.1696,2.1689,2.1677,2.1672,2.1663,2.1661,2.1654,2.1655,2.1654,2.1654,2.1655,2.1654,2.1649,2.1649,2.1649,2.1724,2.1717,2.1713,2.1703,2.1698,2.1686,2.168,2.1672,2.1665,2.1664,2.166,2.1663,2.1663,2.1664,2.1663,2.166,2.166,2.166,2.166,2.1725,2.1722,2.1714,2.1707,2.1699,2.1693,2.1681,2.1677,2.1669,2.1665,2.1664,2.1661,2.1665,2.1663,2.166,2.166,2.166,2.166,2.166,2.173,2.1727,2.1722,2.1713,2.1706,2.1696,2.1689,2.1682,2.1674,2.1673,2.1669,2.1669,2.1667,2.1672,2.1672,2.1672,2.1672,2.1672,2.1672,2.1737,2.1731,2.1727,2.1718,2.1713,2.1706,2.1694,2.1688,2.168,2.1675,2.1675,2.1669,2.1667,2.1666,2.1672,2.1672,2.1672,2.1672,2.1672,2.174,2.1738,2.1732,2.1727,2.1716,2.1709,2.17,2.169,2.1684,2.1681,2.1674,2.1674,2.1671,2.1671,2.167,2.1676,2.1676,2.1676,2.1676,2.1744,2.1742,2.1734,2.1727,2.1719,2.171,2.1702,2.1692,2.1682,2.1678,2.1675,2.1674,2.1674,2.1671,2.167,2.167,2.1676,2.1676,2.1676,2.1745,2.1742,2.1738,2.1729,2.1719,2.1711,2.1703,2.1694,2.1681,2.1676,2.1674,2.1674,2.1672,2.1672,2.1666,2.1666,2.1665,0,0]}]]